Regional Weather Roundup
Issued by NWS

Home | Current Version | Previous Version | Graphics & Text | Print | Product List | Glossary On
Versions: 1 2 3 4 5 6 7 8 9 10 11 12 13 14 15 16 17 18 19 20 21 22 23 24 25 26 27 28 29 30 31 32 33 34 35 36 37 38 39 40 41 42 43 44 45 46 47 48 49 50
000
ASUS43 KLMK 250510
RWRKY
KENTUCKY REGIONAL WEATHER ROUNDUP
NATIONAL WEATHER SERVICE LOUISVILLE KY
100 AM EDT FRI JUL 25 2014

NOTE "FAIR" INDICATES FEW OR NO CLOUDS BELOW 12,000 FEET
WITH NO SIGNIFICANT WEATHER AND/OR OBSTRUCTIONS TO VISIBILITY.

KYZ001>023-026-027-061>063-070>075-250600-
WESTERN AND SOUTH CENTRAL KENTUCKY

CITY           SKY/WX    TMP DP  RH WIND       PRES   REMARKS
PADUCAH        PTCLDY    62  58  86 W3        30.04S
HENDERSON      PTCLDY    59  54  82 CALM      30.04F
OWENSBORO      PTCLDY    68  54  60 E3        30.05S
HOPKINSVILLE   CLEAR     64  56  78 NE3       30.04F
BOWLING GREEN  PTCLDY    63  55  75 CALM      30.05F
GLASGOW        CLEAR     61  54  76 CALM      30.05F
$$

KYZ024-025-028>034-038-045-046-053-250600-
NORTH CENTRAL KENTUCKY

CITY           SKY/WX    TMP DP  RH WIND       PRES   REMARKS
LOUISVILLE/SDF PTCLDY    68  55  63 VRB5      30.05F
LOUISVILLE/LOU CLEAR     67  54  63 CALM      30.06S
FORT KNOX      PTCLDY    59  56  89 NE2       30.04F
$$

KYZ035>037-039>044-047>052-055>060-089>105-250600-
NORTHEAST KENTUCKY

CITY           SKY/WX    TMP DP  RH WIND       PRES   REMARKS
LEXINGTON      CLEAR     62  55  77 CALM      30.06F
COVINGTON      CLEAR     67  51  56 NE6       30.07S
FRANKFORT      CLEAR     60  56  86 CALM      30.05S
$$

KYZ054-064>069-076>088-106>120-250600-
SOUTHEAST KENTUCKY

CITY           SKY/WX    TMP DP  RH WIND       PRES   REMARKS
JACKSON        FOG       63  60  90 CALM      30.08S VSB 1
LONDON         FOG       60  58  92 CALM      30.08S VSB 1/2
SOMERSET       CLEAR     61  61 100 CALM      30.07F FOG
MIDDLESBORO    MOCLDY    61  60  97 CALM      30.09S
MONTICELLO     FOG       57  57 100 CALM      30.08S VSB 1/4
$$




USA.gov is the U.S. government's official web portal to all federal, state and local government web resources and services.